SHT2D EGLL-EGCC

Flight info

Callsign SHT2D
Flight time 0h 31m
Altitude 18000
Route UMLAT T418 WELIN T420 ELVOS
Aircraft A320/M-SDE3FGHIRWY/LB1

Departure

Time 2026-05-03 20:15
Airport London Heathrow Airport (EGLL)

Arrival

Time 2026-05-03 20:47
Airport Manchester Airport (EGCC)
Time Latitude Longitude Altitude Speed Heading
2026-05-03 20:15 51.47423 -0.53565 1875 ft 213 kts 297°
2026-05-03 20:15 51.48156 -0.55784 2346 ft 236 kts 297°
2026-05-03 20:15 51.48951 -0.58260 2899 ft 258 kts 296°
2026-05-03 20:15 51.49755 -0.60843 3766 ft 265 kts 296°
2026-05-03 20:16 51.50611 -0.63501 4683 ft 273 kts 301°
2026-05-03 20:16 51.51799 -0.65918 5564 ft 278 kts 318°
2026-05-03 20:16 51.53446 -0.67569 5809 ft 276 kts 339°
2026-05-03 20:16 51.55313 -0.68290 5994 ft 277 kts 349°
2026-05-03 20:17 51.57164 -0.69145 6005 ft 277 kts 335°
2026-05-03 20:17 51.58881 -0.70534 5972 ft 276 kts 332°
2026-05-03 20:17 51.60529 -0.71953 5956 ft 276 kts 331°
2026-05-03 20:17 51.62225 -0.73422 5983 ft 276 kts 331°
2026-05-03 20:18 51.63913 -0.74892 6058 ft 278 kts 331°
2026-05-03 20:18 51.65632 -0.76387 6897 ft 280 kts 331°
2026-05-03 20:18 51.67357 -0.77877 7837 ft 283 kts 331°
2026-05-03 20:18 51.69110 -0.79368 8738 ft 287 kts 331°
2026-05-03 20:19 51.70886 -0.80862 9611 ft 291 kts 331°
2026-05-03 20:19 51.72708 -0.82377 10204 ft 305 kts 331°
2026-05-03 20:19 51.74641 -0.83980 10461 ft 328 kts 331°
2026-05-03 20:19 51.76707 -0.85696 10971 ft 339 kts 331°
2026-05-03 20:20 51.78822 -0.87447 11664 ft 344 kts 331°
2026-05-03 20:20 51.80970 -0.89217 12385 ft 349 kts 331°
2026-05-03 20:20 51.83143 -0.90992 13149 ft 352 kts 332°
2026-05-03 20:20 51.85493 -0.92200 13840 ft 361 kts 351°
2026-05-03 20:21 51.88020 -0.92020 14482 ft 368 kts
2026-05-03 20:21 51.90545 -0.91203 15138 ft 371 kts 11°
2026-05-03 20:21 51.93087 -0.90328 15779 ft 375 kts 11°
2026-05-03 20:21 51.95610 -0.89455 16403 ft 378 kts 11°
2026-05-03 20:22 51.98216 -0.88549 17049 ft 382 kts 11°
2026-05-03 20:22 52.00827 -0.87641 17674 ft 386 kts 11°
2026-05-03 20:22 52.03465 -0.86722 17865 ft 388 kts 11°
2026-05-03 20:22 52.06103 -0.85803 17904 ft 387 kts 11°
2026-05-03 20:23 52.08736 -0.84885 17906 ft 387 kts 11°
2026-05-03 20:23 52.11368 -0.83966 17901 ft 387 kts 11°
2026-05-03 20:23 52.14002 -0.83046 17904 ft 387 kts 11°
2026-05-03 20:23 52.16633 -0.82127 17904 ft 387 kts 11°
2026-05-03 20:24 52.19265 -0.81206 17905 ft 387 kts 11°
2026-05-03 20:24 52.21897 -0.80284 17907 ft 387 kts 11°
2026-05-03 20:24 52.24526 -0.79364 17907 ft 387 kts 11°
2026-05-03 20:24 52.27162 -0.78470 17902 ft 390 kts
2026-05-03 20:25 52.28956 -0.78279 17912 ft 391 kts 355°
2026-05-03 20:25 52.31612 -0.79122 17907 ft 389 kts 337°
2026-05-03 20:25 52.33956 -0.81249 17909 ft 385 kts 319°
2026-05-03 20:25 52.36021 -0.84028 17907 ft 385 kts 317°
2026-05-03 20:26 52.38077 -0.86828 17913 ft 385 kts 317°
2026-05-03 20:26 52.40132 -0.89633 17912 ft 385 kts 317°
2026-05-03 20:26 52.42188 -0.92439 17910 ft 385 kts 317°
2026-05-03 20:26 52.44244 -0.95246 17910 ft 385 kts 317°
2026-05-03 20:27 52.46303 -0.98059 17907 ft 385 kts 317°
2026-05-03 20:27 52.48332 -1.00836 17919 ft 385 kts 318°
2026-05-03 20:27 52.50388 -1.03651 17911 ft 385 kts 318°
2026-05-03 20:27 52.52448 -1.06472 17908 ft 385 kts 318°
2026-05-03 20:28 52.54509 -1.09297 17902 ft 386 kts 318°
2026-05-03 20:28 52.56572 -1.12129 17898 ft 386 kts 318°
2026-05-03 20:28 52.58633 -1.14964 17896 ft 386 kts 318°
2026-05-03 20:28 52.60691 -1.17794 17895 ft 386 kts 318°
2026-05-03 20:29 52.62723 -1.20592 17897 ft 387 kts 317°
2026-05-03 20:29 52.64778 -1.23431 17897 ft 387 kts 317°
2026-05-03 20:29 52.66837 -1.26283 17897 ft 387 kts 317°
2026-05-03 20:29 52.68903 -1.29143 17897 ft 387 kts 317°
2026-05-03 20:30 52.71071 -1.31774 17893 ft 389 kts 326°
2026-05-03 20:30 52.73351 -1.34086 17896 ft 389 kts 326°
2026-05-03 20:30 52.75659 -1.36430 17951 ft 389 kts 326°
2026-05-03 20:30 52.77943 -1.38750 17789 ft 381 kts 326°
2026-05-03 20:31 52.80173 -1.41016 17520 ft 370 kts 326°
2026-05-03 20:31 52.82333 -1.43215 17242 ft 360 kts 326°
2026-05-03 20:31 52.84423 -1.45353 16987 ft 352 kts 326°
2026-05-03 20:31 52.86499 -1.47485 16724 ft 349 kts 326°
2026-05-03 20:32 52.88552 -1.49600 16465 ft 347 kts 326°
2026-05-03 20:32 52.90594 -1.51704 16136 ft 342 kts 326°
2026-05-03 20:32 52.92608 -1.53778 15680 ft 340 kts 326°
2026-05-03 20:32 52.94617 -1.55847 15225 ft 339 kts 326°
2026-05-03 20:33 52.96611 -1.57904 14772 ft 337 kts 326°
2026-05-03 20:33 52.98600 -1.59955 14320 ft 336 kts 326°
2026-05-03 20:33 53.00578 -1.62000 13872 ft 334 kts 327°
2026-05-03 20:33 53.02544 -1.64038 13391 ft 333 kts 326°
2026-05-03 20:34 53.04496 -1.66082 12939 ft 329 kts 323°
2026-05-03 20:34 53.06211 -1.68557 12491 ft 325 kts 310°
2026-05-03 20:34 53.07675 -1.71396 12067 ft 321 kts 308°
2026-05-03 20:34 53.09100 -1.74168 11930 ft 310 kts 308°
2026-05-03 20:35 53.10481 -1.76846 11795 ft 299 kts 308°
2026-05-03 20:35 53.11829 -1.79452 11449 ft 297 kts 308°
2026-05-03 20:35 53.13172 -1.82047 11112 ft 295 kts 309°
2026-05-03 20:35 53.14524 -1.84668 10715 ft 296 kts 308°
2026-05-03 20:36 53.15849 -1.87240 10343 ft 290 kts 308°
2026-05-03 20:36 53.17158 -1.89786 9850 ft 289 kts 309°
2026-05-03 20:36 53.18449 -1.92306 9288 ft 288 kts 309°
2026-05-03 20:36 53.19740 -1.94834 8745 ft 286 kts 309°
2026-05-03 20:37 53.21020 -1.97344 8370 ft 279 kts 310°
2026-05-03 20:37 53.22242 -1.99737 8221 ft 265 kts 309°
2026-05-03 20:37 53.23210 -2.02271 8006 ft 262 kts 287°
2026-05-03 20:37 53.23369 -2.05290 7967 ft 261 kts 264°
2026-05-03 20:38 53.23124 -2.08261 7848 ft 256 kts 261°
2026-05-03 20:38 53.22835 -2.11179 7570 ft 254 kts 261°
2026-05-03 20:38 53.22538 -2.14080 7287 ft 253 kts 260°
2026-05-03 20:38 53.22239 -2.16972 6989 ft 253 kts 261°
2026-05-03 20:39 53.21936 -2.19860 6691 ft 252 kts 260°
2026-05-03 20:39 53.21631 -2.22735 6389 ft 252 kts 260°
2026-05-03 20:39 53.21329 -2.25573 6085 ft 251 kts 260°
2026-05-03 20:39 53.21019 -2.28461 5823 ft 247 kts 260°
2026-05-03 20:40 53.20724 -2.31202 5689 ft 239 kts 260°
2026-05-03 20:40 53.20442 -2.33820 5539 ft 231 kts 260°
2026-05-03 20:40 53.20156 -2.36434 5293 ft 228 kts 260°
2026-05-03 20:40 53.19865 -2.39032 5003 ft 227 kts 260°
2026-05-03 20:41 53.19576 -2.41618 4714 ft 227 kts 260°
2026-05-03 20:41 53.19279 -2.44200 4411 ft 226 kts 260°
2026-05-03 20:41 53.19225 -2.46790 4072 ft 223 kts 287°
2026-05-03 20:41 53.19987 -2.48962 3743 ft 217 kts 322°
2026-05-03 20:42 53.21318 -2.49994 3428 ft 211 kts 353°
2026-05-03 20:42 53.22769 -2.49999 3081 ft 209 kts 20°
2026-05-03 20:42 53.24088 -2.49042 3001 ft 206 kts 29°
2026-05-03 20:42 53.25331 -2.47910 2996 ft 197 kts 36°
2026-05-03 20:43 53.26247 -2.46325 2892 ft 186 kts 51°
2026-05-03 20:43 53.27033 -2.44694 2716 ft 176 kts 51°
2026-05-03 20:43 53.27776 -2.43161 2472 ft 164 kts 51°
2026-05-03 20:43 53.28466 -2.41743 2238 ft 149 kts 51°
2026-05-03 20:44 53.29083 -2.40475 2043 ft 136 kts 51°
2026-05-03 20:44 53.29666 -2.39275 1808 ft 130 kts 51°
2026-05-03 20:44 53.30233 -2.38102 1625 ft 130 kts 51°
2026-05-03 20:44 53.30796 -2.36939 1468 ft 128 kts 50°
2026-05-03 20:45 53.31358 -2.35782 1306 ft 128 kts 51°
2026-05-03 20:45 53.31920 -2.34624 1128 ft 128 kts 50°
2026-05-03 20:45 53.32482 -2.33458 971 ft 129 kts 50°
2026-05-03 20:45 53.33047 -2.32307 763 ft 127 kts 50°
2026-05-03 20:46 53.33606 -2.31157 585 ft 127 kts 50°
2026-05-03 20:46 53.34160 -2.30005 426 ft 126 kts 50°
2026-05-03 20:46 53.34713 -2.28863 273 ft 126 kts 50°
2026-05-03 20:46 53.35233 -2.27806 249 ft 99 kts 50°
2026-05-03 20:47 53.35553 -2.27129 262 ft 49 kts 52°
2026-05-03 20:47 53.35731 -2.26771 268 ft 33 kts 45°
2026-05-03 20:47 53.35895 -2.26703 260 ft 19 kts 358°
2026-05-03 20:47 53.35984 -2.26757 249 ft 9 kts 293°
2026-05-03 20:48 53.35948 -2.26775 252 ft 4 kts 189°
2026-05-03 20:48 53.35930 -2.26785 253 ft 2 kts 202°
2026-05-03 20:48 53.35921 -2.26795 253 ft 2 kts 214°
2026-05-03 20:48 53.35908 -2.26814 254 ft 3 kts 224°
2026-05-03 20:49 53.35886 -2.26851 254 ft 5 kts 226°
2026-05-03 20:49 53.35859 -2.26916 254 ft 8 kts 238°
2026-05-03 20:49 53.35823 -2.27022 253 ft 13 kts 241°
2026-05-03 20:49 53.35807 -2.27170 248 ft 17 kts 297°
2026-05-03 20:50 53.35782 -2.27331 248 ft 15 kts 232°
2026-05-03 20:50 53.35710 -2.27484 248 ft 18 kts 231°
2026-05-03 20:50 53.35707 -2.27621 247 ft 13 kts 326°
2026-05-03 20:50 53.35791 -2.27674 247 ft 6 kts 332°
2026-05-03 20:51 53.35831 -2.27758 247 ft 12 kts 307°
2026-05-03 20:51 53.35904 -2.27834 247 ft 14 kts 358°